Location: Unspecified
(0.0000°N, 0.0000°E)
Time: 20:05:29
(UTC+00:00)

CZ-3C DEB - Pass Details

Date: 14 March 2026
Orbit: 717 x 38360 km, 18.5° (Epoch: 25 March)

Event Time Altitude Azimuth Distance (km) Brightness Sun altitude
Rises 19:37:59 0° 268° (W) 11,865 ? -22.2°
Reaches altitude 10° 19:53:11 10° 254° (WSW) 6,347 ? -26.0°
Maximum altitude 20:03:04 21° 208° (SSW) 2,722 ? -28.5°
Enters shadow 20:06:10 15° 169° (S) 2,417 ? -29.2°
